Simultaneous Nadir Overpasses (SNOs) Predictions

Prediction of SNOs between AQUA and METOP-A Satellite Orbit:

Table of predicted SNOs for the next 14.0 days since TLE Epoch: 5/6/2014
Index Date (AQUA) Time (AQUA) Lat,Lon (AQUA) SZA (AQUA ) Date (METOP-A) Time (METOP-A) Lat,Lon (METOP-A) SZA (METOP-A ) Distance(km) Time Diff (sec)
1 05/08/2014 10:41:13 73.89, 13.94 56.74 05/08/2014 10:40:31 73.90, 14.04 56.75 2.88 42
2 05/08/2014 11:30:39 -73.93,-178.49 123.23 05/08/2014 11:31:12 -73.92,-178.57 123.24 2.69 33
3 05/11/2014 06:15:28 73.86, 80.45 55.97 05/11/2014 06:14:55 73.87, 80.39 55.98 1.95 33
4 05/11/2014 07:04:55 -73.95,-112.10 123.96 05/11/2014 07:05:35 -73.95,-112.09 123.96 0.14 40
5 05/14/2014 01:49:42 73.86, 146.88 55.27 05/14/2014 01:49:17 73.89, 146.86 55.30 3.40 25
6 05/14/2014 02:39:09 -73.95, -45.66 124.66 05/14/2014 02:39:57 -73.97, -45.63 124.64 2.87 48
7 05/16/2014 20:34:20 -73.41, 46.66 125.87 05/16/2014 20:33:11 -73.36, 44.69 125.85 62.88 69
8 05/16/2014 21:23:57 73.90,-146.76 54.64 05/16/2014 21:23:40 73.91,-146.69 54.65 2.45 17
9 05/16/2014 22:13:24 -73.98, 20.71 125.29 05/16/2014 22:14:20 -73.99, 20.82 125.29 3.60 56
10 05/19/2014 16:08:40 -73.73, 112.42 126.15 05/19/2014 16:07:28 -73.67, 111.82 126.18 19.84 72
11 05/19/2014 16:58:11 73.91, -80.35 54.04 05/19/2014 16:58:03 73.92, -80.25 54.04 3.08 8
12 05/19/2014 17:47:37 -73.94, 87.24 125.95 05/19/2014 17:48:44 -73.95, 87.14 125.94 3.40 67




NCC Satellite Simultaneous Nadir Overpasses (SNOs) Prediction Service
